Location: Newark
(50.4348°N, 30.5552°E)
Time: 01:43:02
(UTC+00:00)

Tiros 1 despin weight - Pass Details

Date: 26 January 2020
Orbit: 594 x 642 km, 48.2° (Epoch: 21 February)

Event Time Altitude Azimuth Distance (km) Brightness Sun altitude
Rises 11:39:44 0° 265° (W) 2,882 ? 18.0°
Reaches altitude 10° 11:42:02 10° 262° (W) 1,985 ? 17.9°
Maximum altitude 11:46:34 68° 181° (S) 678 ? 17.6°
Drops below altitude 10° 11:51:10 10° 99° (E) 2,014 ? 17.3°
Sets 11:53:31 0° 96° (E) 2,928 ? 17.1°
